N1LTP Weather Reports


time (UTC)temp
F
wind
direction
speed
knots
gust
knots
rain 1hr
in
rain 24hr
in
rain mn
in
humidity
%
barometer
mb
20260509081600 36 340 0.0 0.0 0.05 0.73 0.26 90 1013.7
20260509074556 36 340 0.0 0.0 0.25 0.73 0.26 89 1013.8
20260509073056 36 340 0.0 0.0 0.20 0.68 0.21 90 1013.9
20260509071555 36 340 0.0 0.0 0.20 0.68 0.21 90 1013.7
20260509070053 37 340 0.0 0.0 0.13 0.61 0.14 89 1013.9
20260509064550 37 340 0.0 0.0 0.01 0.48 0.01 89 1013.9
20260509063056 37 340 0.0 0.0 0.01 0.48 0.01 89 1013.9
20260509061548 37 340 0.0 0.0 0.01 0.48 0.01 88 1013.8
20260509060050 38 340 0.0 0.0 0.01 0.48 0.01 88 1013.6
20260509054543 38 340 0.0 0.0 0.00 0.47 0.00 88 1013.7
20260509053107 38 340 0.0 0.0 0.00 0.47 0.00 87 1013.6
20260509051540 39 340 0.0 0.0 0.00 0.47 0.00 86 1013.6
20260509050038 39 340 0.0 0.0 0.00 0.47 0.00 84 1013.5
20260509044535 40 340 0.0 0.0 0.00 0.47 0.00 83 1013.5
20260509043039 40 340 0.0 0.0 0.00 0.47 0.00 83 1013.5
20260509041540 41 340 0.0 0.0 0.00 0.47 0.00 81 1013.4
20260509040029 41 340 0.0 1.7 0.00 0.47 0.00 80 1013.2
20260509034526 42 340 0.0 0.0 0.00 0.47 0.47 80 1013.2
20260509033026 42 340 0.0 0.0 0.00 0.47 0.47 79 1013.0
20260509031526 43 340 0.0 0.0 0.00 0.47 0.47 79 1013.0
20260509030024 44 340 0.0 0.0 0.00 0.47 0.47 78 1013.1
20260509024523 45 340 0.0 0.0 0.00 0.47 0.47 76 1013.0
20260509023022 46 340 0.0 0.0 0.00 0.47 0.47 73 1012.8
20260509021521 47 340 0.0 0.0 0.00 0.47 0.47 72 1012.7
20260509020023 48 340 0.0 0.0 0.00 0.47 0.47 67 1012.6
20260509014517 49 340 0.0 0.0 0.00 0.47 0.47 64 1012.4
20260509013014 50 340 0.0 0.0 0.00 0.47 0.47 62 1012.1
20260509011513 51 340 0.0 0.0 0.00 0.47 0.47 60 1011.8
20260509010027 52 340 0.0 2.6 0.00 0.47 0.47 58 1011.4
20260509004517 52 335 0.9 3.5 0.00 0.47 0.47 57 1011.2
20260509003005 52 326 0.0 1.7 0.01 0.47 0.47 57 1010.9
20260509001504 53 326 0.0 1.7 0.01 0.47 0.47 57 1010.6
20260508234558 54 321 0.9 3.5 0.01 0.47 0.47 53 1009.9
20260508233111 55 304 0.0 7.0 0.00 0.46 0.46 51 1009.7
20260508231559 55 304 0.9 7.8 0.00 0.46 0.46 50 1009.7
20260508230105 56 330 3.5 11.3 0.00 0.46 0.46 47 1009.6
20260508224555 56 325 4.3 10.4 0.00 0.46 0.46 48 1009.5
20260508223056 57 308 1.7 12.2 0.00 0.46 0.46 48 1009.4
20260508221555 57 300 0.9 11.3 0.00 0.46 0.46 49 1009.3
20260508220057 57 259 1.7 12.2 0.00 0.46 0.46 48 1009.2
20260508214602 57 297 2.6 9.6 0.00 0.46 0.46 50 1009.2
20260508213054 57 300 1.7 9.6 0.00 0.46 0.46 51 1009.2
20260508211554 57 318 4.3 13.9 0.01 0.46 0.46 50 1009.1
20260508210053 57 355 2.6 10.4 0.01 0.46 0.46 51 1009.1
20260508204551 57 329 2.6 12.2 0.01 0.46 0.46 49 1009.0
20260508203052 57 326 1.7 11.3 0.02 0.46 0.46 49 1009.0
20260508201551 58 323 7.0 13.9 0.03 0.45 0.45 47 1008.7
20260508200056 58 328 7.0 13.9 0.06 0.45 0.45 46 1008.4
20260508194550 59 294 3.5 13.9 0.07 0.45 0.45 44 1008.3
20260508193053 59 300 0.9 10.4 0.08 0.44 0.44 41 1008.0
20260508191555 59 342 6.1 13.9 0.17 0.42 0.42 39 1007.9
20260508190051 59 315 2.6 9.6 0.14 0.39 0.39 39 1007.9
20260508184547 60 285 5.2 13.0 0.13 0.38 0.38 39 1007.8
20260508183046 59 360 3.5 9.6 0.11 0.36 0.36 42 1007.9
20260508181547 61 288 3.5 11.3 0.00 0.25 0.25 39 1008.0
20260508180046 61 329 4.3 8.7 0.01 0.25 0.25 39 1008.0
20260508174544 61 286 4.3 10.4 0.01 0.25 0.25 39 1008.0
20260508173045 60 340 2.6 13.9 0.01 0.25 0.25 41 1008.0
20260508171551 62 319 4.3 13.9 0.01 0.25 0.25 39 1008.1
20260508170046 61 291 2.6 7.8 0.00 0.24 0.24 41 1008.0
20260508164539 60 291 0.9 11.3 0.00 0.24 0.24 41 1008.2
20260508163037 60 351 1.7 10.4 0.01 0.24 0.24 42 1008.3
20260508161537 60 304 0.0 10.4 0.01 0.24 0.24 41 1008.4
20260508160035 60 167 1.7 9.6 0.01 0.24 0.24 42 1008.6
20260508154532 59 238 1.7 7.0 0.03 0.24 0.24 41 1008.9
20260508153032 59 326 2.6 10.4 0.02 0.23 0.23 43 1009.0
20260508151531 58 307 0.9 7.0 0.14 0.23 0.23 41 1009.1
20260508150025 58 26 3.5 7.8 0.20 0.23 0.23 41 1009.3
20260508144522 58 300 2.6 7.8 0.18 0.21 0.21 43 1009.2
20260508143018 58 232 2.6 7.0 0.18 0.21 0.21 43 1009.4
20260508141515 56 317 3.5 12.2 0.09 0.09 0.09 42 1009.3
20260508140010 56 332 3.5 8.7 0.03 0.03 0.03 44 1009.4
20260508134506 55 207 1.7 7.0 0.03 0.03 0.03 46 1009.6
20260508133002 54 325 3.5 8.7 0.03 0.03 0.03 47 1009.8
20260508131601 53 346 2.6 9.6 0.00 0.00 0.00 52 1009.8
20260508130109 51 316 0.9 4.3 0.00 0.00 0.00 55 1009.8
20260508124552 51 266 0.0 4.3 0.00 0.84 0.00 55 1009.8
20260508123049 50 285 0.9 5.2 0.00 0.84 0.00 56 1010.0
20260508121558 50 298 0.9 5.2 0.00 0.84 0.00 56 1009.9
20260508120047 49 313 1.7 4.3 0.00 0.84 0.00 59 1009.8
20260508114545 49 338 2.6 7.8 0.00 0.89 0.00 57 1009.9
20260508113045 48 306 2.6 7.8 0.00 0.89 0.00 60 1009.9
20260508111542 45 313 0.9 3.5 0.00 0.89 0.00 68 1009.7
20260508110041 43 330 0.9 2.6 0.00 0.89 0.00 73 1009.7
20260508104603 40 317 0.0 0.0 0.00 0.91 0.00 80 1009.6
20260508103043 40 317 0.0 0.0 0.00 0.91 0.00 80 1009.4
20260508101534 39 317 0.0 0.0 0.00 0.91 0.00 81 1009.2
20260508100033 39 317 0.0 0.0 0.00 0.91 0.00 84 1009.2
20260508094529 39 317 0.0 0.0 0.00 0.94 0.00 84 1009.1
20260508093027 39 317 0.0 0.0 0.00 0.94 0.00 83 1008.9
20260508091525 39 317 0.0 0.0 0.00 0.94 0.00 81 1008.7
20260508090024 39 317 0.0 0.0 0.00 0.94 0.00 80 1008.8
20260508084522 39 317 0.0 0.9 0.00 0.95 0.00 81 1008.8
20260508083021 39 317 0.0 0.9 0.00 0.95 0.00 80 1008.7